Port Edwards, WI

9:09 PM CST on February 05, 2016 (GMT -0600)
Alexander Field South Wood County

Weather History for KISW - March, 2013

Change the Weather History Date:

Monday, March 11, 2013

  Actual Average Record
Temperature  
Mean Temperature 30 °F -  
Max Temperature 33 °F 38 °F 64 °F (2012)
Min Temperature 25 °F 17 °F -19 °F (1948)
Degree Days  
Heating Degree Days 35    
Moisture  
Dew Point 27 °F    
Average Humidity 89    
Maximum Humidity 100    
Minimum Humidity 74    
Precipitation  
Precipitation 0.05 in - - ()
Sea Level Pressure  
Sea Level Pressure 29.66 in    
Wind  
Wind Speed 9 mph (NNW)    
Max Wind Speed 14 mph    
Max Gust Speed 21 mph    
Visibility 5 miles    
Events Snow    
Averages and records for this station are not official NWS values.
T = Trace of Precipitation, MM = Missing Value Source: NWS Daily Summary

Daily Weather History Graph

Daily Weather History Graph

Search for Another Location

Airport or City:

Trip Planner

Search our weather history database for the weather conditions in past years. The results will help you decide how hot, cold, wet, or windy it might be!

Date:

Astronomy

Mar. 11, 2013 Rise Set
Actual Time 7:18 AM CDT 7:00 PM CDT
Civil Twilight 6:49 AM CDT 7:29 PM CDT
Nautical Twilight 6:15 AM CDT 8:03 PM CDT
Astronomical Twilight 5:41 AM CDT 8:37 PM CDT
Moon 6:51 AM CDT (3/11) 7:15 PM CDT (3/11)
Length of Visible Light 12h 40m
Length of Day
11h 42m
Waning Crescent, 0% of the Moon is Illuminated
Mar 11
Waning Crescent
Mar 11
New
Mar 19
First Quarter
Mar 27
Full
Apr 2
Last Quarter

Hourly Weather History & Observations

Time (CDT) Temp. Windchill Dew Point Humidity Pressure Visibility Wind Dir Wind Speed Gust Speed Precip Events Conditions
12:06 AM 30.2 °F 21.3 °F 30.2 °F 100% 29.71 in 0.8 mi NNE 10.4 mph - 0.01 in Snow Light Snow
12:21 AM 30.2 °F 21.3 °F 30.2 °F 100% 29.71 in 1.0 mi NNE 10.4 mph - 0.02 in Snow Light Snow
12:27 AM 30.2 °F 20.2 °F 30.2 °F 100% 29.70 in 1.2 mi NE 12.7 mph 19.6 mph 0.02 in Snow Light Snow
12:54 AM 30.9 °F 21.7 °F 30.0 °F 96% 29.72 in 2.0 mi NNE 11.5 mph - 0.04 in Snow Light Snow
1:08 AM 30.2 °F 21.9 °F 30.2 °F 100% 29.68 in 1.8 mi NNE 9.2 mph - 0.00 in Snow Light Snow
1:54 AM 30.0 °F 20.5 °F 30.0 °F 100% 29.70 in 2.0 mi NNE 11.5 mph - 0.00 in Snow Light Snow
2:15 AM 30.2 °F 21.3 °F 28.4 °F 93% 29.66 in 3.0 mi North 10.4 mph - 0.00 in Snow Light Snow
2:54 AM 30.0 °F 21.1 °F 28.9 °F 96% 29.68 in 5.0 mi North 10.4 mph - 0.00 in   Overcast
3:54 AM 30.0 °F 23.2 °F 28.9 °F 96% 29.67 in 6.0 mi North 6.9 mph - N/A   Overcast
4:43 AM 30.2 °F 25.4 °F 28.4 °F 93% 29.62 in 2.0 mi NNW 4.6 mph - 0.00 in Snow Light Snow
4:54 AM 30.0 °F 23.2 °F 28.9 °F 96% 29.65 in 1.8 mi North 6.9 mph - 0.00 in Snow Light Snow
5:15 AM 30.2 °F 22.6 °F 28.4 °F 93% 29.61 in 2.0 mi North 8.1 mph - 0.00 in Snow Light Snow
5:35 AM 30.2 °F 24.3 °F 28.4 °F 93% 29.61 in 1.8 mi NNW 5.8 mph - 0.00 in Snow Light Snow
5:54 AM 30.0 °F 23.2 °F 28.0 °F 92% 29.65 in 1.8 mi NNW 6.9 mph - 0.00 in Snow Light Snow
6:01 AM 30.2 °F 23.4 °F 28.4 °F 93% 29.61 in 2.0 mi NNW 6.9 mph - 0.00 in Snow Light Snow
6:16 AM 30.2 °F 24.3 °F 28.4 °F 93% 29.62 in 3.0 mi North 5.8 mph - 0.00 in   Overcast
6:54 AM 30.0 °F 24.1 °F 28.0 °F 92% 29.66 in 8.0 mi NNW 5.8 mph - 0.00 in   Overcast
7:42 AM 30.2 °F 24.3 °F 28.4 °F 93% 29.64 in 10.0 mi North 5.8 mph - N/A   Overcast
7:54 AM 30.0 °F 22.4 °F 28.0 °F 92% 29.68 in 10.0 mi North 8.1 mph - N/A   Overcast
8:24 AM 30.2 °F 22.6 °F 28.4 °F 93% 29.65 in 6.0 mi North 8.1 mph - N/A   Overcast
8:38 AM 30.2 °F 22.6 °F 28.4 °F 93% 29.65 in 1.8 mi North 8.1 mph - 0.00 in Snow Light Snow
8:51 AM 30.2 °F 21.9 °F 28.4 °F 93% 29.64 in 1.2 mi North 9.2 mph - 0.00 in Snow Light Snow
8:54 AM 30.0 °F 22.4 °F 28.9 °F 96% 29.68 in 1.2 mi North 8.1 mph - 0.00 in Snow Light Snow
9:30 AM 30.2 °F 21.9 °F 28.4 °F 93% 29.63 in 2.5 mi North 9.2 mph - 0.00 in Snow Light Snow
9:40 AM 30.2 °F 23.4 °F 30.2 °F 100% 29.62 in 3.0 mi North 6.9 mph - 0.00 in Snow Light Snow
9:54 AM 30.9 °F 22.8 °F 30.0 °F 96% 29.65 in 4.0 mi North 9.2 mph - 0.00 in Snow Light Snow
10:18 AM 30.2 °F 21.3 °F 30.2 °F 100% 29.61 in 10.0 mi North 10.4 mph - 0.00 in   Overcast
10:54 AM 32.0 °F 23.0 °F 28.9 °F 88% 29.63 in 10.0 mi North 11.5 mph - 0.00 in   Overcast
11:33 AM 32.0 °F 22.5 °F 26.6 °F 80% 29.59 in 10.0 mi NNE 12.7 mph - N/A   Overcast
11:54 AM 32.0 °F 23.0 °F 28.0 °F 85% 29.62 in 10.0 mi North 11.5 mph - N/A   Overcast
1:54 PM 33.1 °F 26.1 °F 26.1 °F 75% 29.61 in 10.0 mi NNW 8.1 mph - N/A   Overcast
2:54 PM 32.0 °F 24.2 °F 25.0 °F 75% 29.61 in 10.0 mi North 9.2 mph - N/A   Overcast
3:54 PM 30.9 °F 21.7 °F 24.1 °F 76% 29.63 in 10.0 mi NNW 11.5 mph - N/A   Overcast
4:54 PM 30.0 °F 22.4 °F 25.0 °F 82% 29.64 in 10.0 mi NW 8.1 mph - N/A   Overcast
5:54 PM 30.0 °F 19.5 °F 24.1 °F 79% 29.65 in 3.0 mi NW 13.8 mph 20.7 mph 0.01 in Snow Light Snow
6:06 PM 30.2 °F 21.3 °F 24.8 °F 80% 29.61 in 5.0 mi NNW 10.4 mph - 0.00 in Snow Light Snow
6:24 PM 30.2 °F 21.3 °F 24.8 °F 80% 29.62 in 7.0 mi NNW 10.4 mph - 0.00 in   Overcast
6:46 PM 28.4 °F 18.0 °F 24.8 °F 86% 29.63 in 2.5 mi NNW 12.7 mph 19.6 mph 0.00 in Snow Light Snow
6:54 PM 28.9 °F 19.8 °F 24.1 °F 82% 29.68 in 4.0 mi NNW 10.4 mph - 0.00 in Snow Light Snow
7:04 PM 28.4 °F 19.1 °F 23.0 °F 80% 29.64 in 7.0 mi NNW 10.4 mph - 0.00 in Snow Light Snow
7:54 PM 28.0 °F 18.6 °F 23.0 °F 81% 29.72 in 4.0 mi NW 10.4 mph - 0.00 in Snow Light Snow
8:13 PM 28.4 °F 18.0 °F 21.2 °F 74% 29.68 in 7.0 mi NW 12.7 mph 20.7 mph 0.00 in Snow Light Snow
8:54 PM 27.0 °F 18.7 °F 19.9 °F 75% 29.75 in 10.0 mi NNW 8.1 mph - 0.00 in   Overcast
9:54 PM 27.0 °F 18.0 °F 21.0 °F 78% 29.77 in 10.0 mi WNW 9.2 mph - N/A   Overcast
11:54 PM 25.0 °F 15.5 °F 18.0 °F 75% 29.79 in 10.0 mi NW 9.2 mph - N/A   Overcast